Location: Tucson
(32.2217°N, 110.9265°W)
Time: 10:41:15
(UTC-07:00)

Envisat - Pass Details

Date: 03 October 2021
Orbit: 764 x 766 km, 98.2° (Epoch: 22 October)

Event Time Altitude Azimuth Distance (km) Brightness Sun altitude
Rises 05:23:21 0° 13° (NNE) 3,231 6.5 -12.6°
Reaches altitude 10° 05:25:40 10° 14° (NNE) 2,302 5.7 -12.2°
Maximum altitude 05:30:45 82° 102° (ESE) 775 3.1 -11.1°
Drops below altitude 10° 05:35:48 10° 190° (S) 2,288 5.4 -10.0°
Sets 05:38:05 0° 191° (SSW) 3,211 6.1 -9.5°
